Hourly Data Report for June 21, 2019

TORONTO CITY
ONTARIO
Current Station Operator: ECCC - MSC

43°40'00.000" N
79°24'00.000" W
112.50 m
6158355
71508
XTO

Download Data

Hourly Data (June 2019)
Hourly Data Report for June 21, 2019
TIME
LST
Temp Definition
°C
Dew Point Definition
°C
Rel Hum Definition
%
Precip. Amount Definition
mm

Wind Dir Definition
10's deg

Wind Spd Definition
km/h
Visibility Definition
km
Stn Press Definition
kPa
Hmdx Definition


Wind Chill Definition


Weather Definition


00:00 16.8 14.0 83 0.0       99.14     LegendNANA
01:00 16.7 14.3 86 0.3       99.15     LegendNANA
02:00 16.5 13.2 81 0.0       99.19     LegendNANA
03:00 16.0 13.2 83 0.0       99.25     LegendNANA
04:00 15.4 12.4 82 0.0       99.31     LegendNANA
05:00 15.2 11.5 79 0.0       99.44     LegendNANA
06:00 15.4 11.5 78 0.0       99.51     LegendNANA
07:00 16.7 11.6 72 0.0       99.57     LegendNANA
08:00 17.4 11.5 68 0.0       99.62     LegendNANA
09:00 19.0 11.1 60 0.0       99.70     LegendNANA
10:00 20.9 11.8 56 0.0       99.71     LegendNANA
11:00 22.4 12.2 53 0.0       99.81 25   LegendNANA
12:00 22.6 10.0 45 0.0       99.80     LegendNANA
13:00 23.2 9.9 43 0.0       99.77     LegendNANA
14:00 23.4 9.7 42 0.0       99.81 25   LegendNANA
15:00 23.3 7.6 36 0.0       99.82     LegendNANA
16:00 23.5 8.1 37 0.0       99.85     LegendNANA
17:00 22.7 6.8 36 0.0       99.89     LegendNANA
18:00 21.9 8.4 42 0.0       99.93     LegendNANA
19:00 21.0 7.6 42 0.0       99.99     LegendNANA
20:00 19.9 7.1 43 0.0       100.02     LegendNANA
21:00 18.9 6.7 45 0.0       100.07     LegendNANA
22:00 18.2 6.5 46 0.0       100.13     LegendNANA
23:00 17.5 6.4 48 0.0       100.14     LegendNANA

Notes on Data Quality.

Legend

  • E = Estimated
  • M = Missing
  • NA = Not Available*
  • [empty] = Indicates an unobserved value
Date modified: